Regional Weather Roundup
Issued by NWS

Home | Current Version | Previous Version | Text Only | Print | Product List | Glossary On
Versions: 1 2 3 4 5 6 7 8 9 10 11 12 13 14 15 16 17 18 19 20 21 22 23 24 25 26 27
000
ASUS45 KBOU 291507
RWRCO

WEATHER ROUNDUP FOR COLORADO
NATIONAL WEATHER SERVICE DENVER/BOULDER CO
900 AM MDT SAT APR 29 2017

NOTE: "FAIR" INDICATES FEW OR NO CLOUDS BELOW 12000 FEET WITH NO
SIGNIFICANT WEATHER AND/OR OBSTRUCTIONS TO VISIBILITY.

COZ001>005-013-030-031-291600-
...NORTHWEST COLORADO...

CITY           SKY/WX    TMP DP  RH WIND       PRES   REMARKS
CRAIG          CLOUDY    35  18  49 E10       30.07R WCI  27
HAYDEN         FAIR      34  14  44 E6        30.06R WCI  29
MEEKER         CLOUDY    34  21  59 NE18G24   30.02R WCI  23
MOUNT WERNER   NOT AVBL
STEAMBOAT SPGS CLOUDY    32  15  51 CALM      30.05R
WALDEN           N/A     25  12  58 E20       30.09R WCI  11
$$

COZ006>008-011-291600-
...WEST CENTRAL VALLEYS...

CITY           SKY/WX    TMP DP  RH WIND       PRES   REMARKS
GRAND JUNCTION CLOUDY    44  24  45 NW9       29.98R
MONTROSE       FOG       32  32 100 CALM      29.99R VSB 1/4
EAGLE          CLOUDY    30  18  59 CALM      30.06R
RIFLE          FAIR      41  23  48 NW8       30.00R
DELTA          PTSUNNY   41  37  87 SE3       29.97R
NUCLA          FAIR      37  30  75 NW5       29.97R
$$

COZ017>023-064>068-291600-
...SOUTHWEST COLORADO...

CITY           SKY/WX    TMP DP  RH WIND       PRES   REMARKS
DURANGO        LGT SNOW  32  26  78 NE8       29.90R WCI  25
CORTEZ         FAIR      30  30 100 CALM      29.91R
PAGOSA SPRINGS CLOUDY    29  28  96 SW3       29.89R
TELLURIDE      FAIR      26  21  79 CALM      29.91R
WOLF CREEK PAS LGT SNOW  10  10 100 N13G24    29.91R VSB 3/4 WCI  -5
$$

COZ009-010-012-014-032>034-037-058>063-291600-
...CENTRAL COLORADO...

CITY           SKY/WX    TMP DP  RH WIND       PRES   REMARKS
ASPEN          CLOUDY    27  14  58 S3        29.98R
BUENA VISTA    LGT SNOW  24  19  80 W5        30.05R WCI  18
COPPER MTN     LGT SNOW  14   7  73 MISG      29.97R VSB 1
BERTHOUD PASS  SNOW       3  -8  60 MISG      29.96S VSB 1/4
COTTONWOOD PAS LGT SNOW  21  19  93 CALM      30.02R
GUNNISON       FAIR      31  15  52 NE6       29.95R WCI  25
KREMMLING      CLOUDY    34  23  64 E7        30.07S WCI  28
LEADVILLE      LGT SNOW  15  11  83 S10       29.98R VSB 1   WCI   2
MONARCH PASS   CLOUDY     9   5  85 E45G51    29.94R WCI -18
SALIDA         CLOUDY    27  24  88 N3        30.14R
SUNLIGHT       CLOUDY    18  12  79 NE7       30.00R WCI   8
WILKERSON PASS CLOUDY   N/A N/A N/A NE12G24   30.00R
$$

COZ069>075-291600-
...SAN LUIS VALLEY/SANGRE DE CRISTO MOUNTAINS...

CITY           SKY/WX    TMP DP  RH WIND       PRES   REMARKS
ALAMOSA        CLOUDY    27  23  85 W12       29.91R WCI  17
LA VETA PASS   HVY SNOW  16  12  86 MISG      30.01F VSB<1/4
SAGUACHE       CLOUDY    32  10  40 E13G22    29.95R WCI  22
$$

COZ035-036-038>040-291600-
...NORTHERN COLORADO FRONT RANGE...

CITY           SKY/WX    TMP DP  RH WIND       PRES   REMARKS
DENVER INTL AP LGT SNOW  30  26  85 N16       30.14F FOG     WCI  19
DMNS CITY PARK   N/A     30  30 100 N9G15     30.17R WCI  21
AURORA         LGT SNOW  28  28  99 N10       30.14F FOG     WCI  18
FRONT RANGE AP LGT SNOW  30  30 100 N15G21    30.14F VSB 1   WCI  19
ERIE MUNI ARPT LGT SNOW  32  31  97 N9        30.17F WCI  24
BOULDER MUN AP LGT SNOW  32  30  93 N10       30.17F WCI  24
CENTENNIAL     LGT SNOW  27  26  96 N12       30.14S VSB 1   WCI  17
BROOMFIELD     LGT SNOW  30  28  93 N12       30.16S VSB 3/4 WCI  21
FORT COLLINS   LGT SNOW  32  30  92 N12       30.20S VSB 3/4 WCI  23
LONGMONT       LGT SNOW  33  31  90 N7        30.20F WCI  27
$$

COZ041-046-047-076>085-087-088-291600-
...PIKES PEAK/PALMER DIVIDE AND SOUTHERN FOOTHILLS...

CITY           SKY/WX    TMP DP  RH WIND       PRES   REMARKS
COLO. SPRINGS  FLURRIES  31  23  72 N18       30.09R WCI  19
A. F. ACADEMY  LGT SNOW  27  23  85 N14G23    30.08R FOG     WCI  15
SCHRIEVER AFB  FLURRIES  27  24  87 N20G28    30.09R WCI  13
ELLICOTT       LGT SNOW N/A N/A N/A NE22      30.07R
FALCON         LGT SNOW  27  24  86 N15G23    30.08R WCI  15
FORT CARSON    FLURRIES  31  24  75 N22G29    30.09R WCI  18
LIMON          LGT SNOW  29  27  92 NE24      30.11R FOG     WCI  15
MONUMENT HILL    N/A     23  21  93 N14       30.10R WCI  11
TRINIDAD       LGT SNOW  28  25  88 N18       30.05F VSB 3/4 WCI  15
$$

COZ042>045-048>051-090-091-291600-
...NORTHEAST COLORADO...

CITY           SKY/WX    TMP DP  RH WIND       PRES   REMARKS
GREELEY ARPT   LGT SNOW  32  30  93 N15       30.19F FOG     WCI  22
AKRON          LGT SNOW  31  27  85 N18       30.13S FOG     WCI  19
BURLINGTON     NOT AVBL
WRAY           NOT AVBL
STERLING       CLOUDY    36  28  75 NE14G23   30.17F
HOLYOKE        PTSUNNY   37  30  75 N17G23    30.16F
FORT MORGAN    CLOUDY    33  30  89 N18       30.17F WCI  22
$$

COZ086-089-092>099-291600-
...SOUTHEAST COLORADO...

CITY           SKY/WX    TMP DP  RH WIND       PRES   REMARKS
PUEBLO         LGT SNOW  33  30  88 NE8       30.13R VSB 3/4 WCI  26
LA JUNTA       SNOW      33  31  92 N13       30.10R VSB 1/2 WCI  24
LAMAR          SNOW      33  31  92 N12       30.04S VSB 1/2 WCI  24
SPRINGFIELD      N/A     30  30 100 N25       30.01R WCI  16
$$




USA.gov is the U.S. government's official web portal to all federal, state and local government web resources and services.